Location: Doschendorf
(50.0069°N, 11.0602°E)
Time: 15:12:15
(UTC+00:00)

SKYMED 3 - Pass Details

Date: 17 November 2019
Orbit: 621 x 623 km, 97.9° (Epoch: 11 December)

Event Time Altitude Azimuth Distance (km) Brightness Sun altitude
Exits shadow 17:21:03 13° 20° (NNE) 1,830 6.7 -17.7°
Maximum altitude 17:24:57 66° 101° (ESE) 685 4.5 -18.3°
Drops below altitude 10° 17:29:15 10° 185° (S) 1,987 7.3 -19.0°
Sets 17:31:27 0° 188° (S) 2,889 8.2 -19.3°
